{"data":{"norad_id":50165,"epoch":"2026-05-24T14:26:43.002240Z","epoch_age_seconds":103266,"freshness":"FRESH","line1":"1 50165U 21125K   26144.60188660  .00000259  00000+0  34364-4 0  9999","line2":"2 50165  53.2155 278.3360 0001265  91.4223 268.6914 15.08837804247962","mean_motion":15.08837804,"eccentricity":0.0001265,"inclination_deg":53.2155,"raan_deg":278.336,"arg_perigee_deg":91.4223,"mean_anomaly_deg":268.6914,"bstar":3.4364e-5,"rev_number":24796,"period_min":95.437693579952,"perigee_km":538.87498854741,"apogee_km":540.62521398403,"semimajor_km":6917.8871012657,"source":"CELESTRAK","updated_at":"2026-05-25T13:38:16.842649Z"}}